period_start,C,m1,H,J0,J1,J2,J3,J4,J5,JA,JB,JC,JD,JJ,JK,JN,#
2018-08-08 00:03:54,0.02,0.30,0.00,25.43,28.93,31.70,13.84,43.30,1023.47,2021.04,3362.02,2988.65,3416.67,599.63,594.79,24.30,0000 0000 0000 0000 000000
2018-08-08 00:08:56,0.01,0.30,0.00,25.44,28.95,31.66,13.86,43.25,1023.47,2021.03,3361.96,2988.06,3416.05,600.01,595.22,24.35,0000 0000 0000 0000 000000
2018-08-08 00:13:57,0.14,0.31,0.00,25.45,28.95,31.69,13.84,43.27,1023.47,2021.02,3359.67,2986.38,3413.85,600.16,595.28,24.40,0000 0000 0000 0000 000000
2018-08-08 00:18:59,0.03,0.31,0.00,25.47,28.96,31.72,13.84,43.28,1023.46,2021.01,3358.28,2985.20,3413.00,599.92,595.01,24.45,0000 0000 0000 0000 000000
2018-08-08 00:24:00,0.01,0.31,0.00,25.47,28.97,31.73,13.87,43.27,1023.45,2021.00,3358.01,2985.00,3412.61,599.85,594.92,24.50,0000 0000 0000 0000 000000
2018-08-08 00:29:01,0.01,0.31,0.00,25.47,28.98,31.69,13.85,43.30,1023.46,2021.00,3357.87,2984.99,3412.03,599.89,594.94,24.55,0000 0000 0000 0000 000000
2018-08-08 00:34:03,0.02,0.31,0.00,25.50,29.00,31.72,13.82,43.23,1023.47,2021.00,3357.22,2984.79,3411.84,599.87,594.87,24.60,0000 0000 0000 0000 000000
2018-08-08 00:39:04,0.04,0.32,0.00,25.53,29.00,31.76,13.84,43.20,1023.48,2021.00,3356.27,2984.02,3411.04,600.27,595.19,24.65,0000 0000 0000 0000 000000
2018-08-08 00:44:06,0.00,0.32,0.00,25.56,29.01,31.73,13.83,43.21,1023.47,2021.00,3356.01,2983.93,3410.93,599.96,594.88,24.70,0000 0000 0000 0000 000000
2018-08-08 00:49:07,0.03,0.32,0.00,25.58,29.02,31.77,13.78,43.29,1023.48,2020.99,3355.98,2983.37,3410.21,599.82,594.74,24.75,0000 0000 0000 0000 000000
2018-08-08 00:54:08,0.01,0.32,0.00,25.61,29.03,31.77,13.87,43.32,1023.48,2020.99,3355.81,2983.07,3410.01,600.22,595.01,24.80,0000 0000 0000 0000 000000
2018-08-08 00:59:10,0.01,0.32,0.00,25.63,29.05,31.76,13.86,43.39,1023.49,2020.99,3355.09,2983.00,3409.96,600.31,595.13,24.85,0000 0000 0000 0000 000000
2018-08-08 01:04:11,0.01,0.32,0.00,25.67,29.05,31.73,13.80,43.26,1023.49,2020.97,3354.98,2982.94,3409.36,599.93,594.62,24.90,0000 0000 0000 0000 000000
2018-08-08 01:09:12,0.02,0.32,0.00,25.70,29.07,31.77,13.86,43.19,1023.49,2020.97,3354.73,2982.53,3409.02,600.13,594.67,24.95,0000 0000 0000 0000 000000
2018-08-08 01:14:13,0.01,0.32,0.00,25.74,29.09,31.79,13.86,43.28,1023.47,2020.95,3354.06,2982.05,3408.99,600.13,594.72,25.00,0000 0000 0000 0000 000000
2018-08-08 01:19:15,0.00,0.32,0.00,25.77,29.10,31.79,13.89,43.23,1023.47,2020.89,3353.98,2982.00,3408.55,599.93,594.42,25.05,0000 0000 0000 0000 000000
2018-08-08 01:24:16,0.00,0.32,0.00,25.80,29.12,31.80,13.83,43.33,1023.46,2020.71,3353.53,2981.85,3408.02,600.40,594.89,25.10,0000 0000 0000 0000 000000
2018-08-08 01:29:17,-0.01,0.32,0.00,25.85,29.14,31.81,13.83,43.23,1023.46,2020.38,3353.02,2981.19,3407.92,599.65,594.22,25.15,0000 0000 0000 0000 000000
2018-08-08 01:34:18,-0.00,0.32,0.00,25.88,29.16,31.82,13.82,43.27,1023.46,2020.09,3352.91,2981.00,3407.21,600.18,594.41,25.20,0000 0000 0000 0000 000000
2018-08-08 01:39:19,0.01,0.32,0.00,25.93,29.19,31.82,13.79,43.12,1023.46,2020.03,3352.20,2980.96,3407.00,599.99,594.28,25.25,0000 0000 0000 0000 000000
2018-08-08 01:44:21,0.01,0.32,0.00,25.96,29.21,31.86,13.79,43.10,1023.46,2020.02,3352.00,2980.65,3406.92,599.97,594.01,25.30,0000 0000 0000 0000 000000
2018-08-08 01:49:22,0.03,0.32,0.00,25.99,29.23,31.90,13.86,43.29,1023.47,2020.01,3351.88,2980.08,3406.14,600.42,594.48,25.35,0000 0000 0000 0000 000000
2018-08-08 01:54:23,0.01,0.32,0.00,26.03,29.26,31.92,13.74,43.00,1023.47,2020.00,3351.14,2980.00,3406.00,600.04,593.97,25.40,0000 0000 0000 0000 000000
2018-08-08 01:59:24,0.01,0.33,0.00,26.07,29.28,31.94,13.79,43.33,1023.48,2020.00,3350.99,2979.80,3405.63,600.28,594.14,25.45,0000 0000 0000 0000 000000
2018-08-08 02:04:25,0.03,0.33,0.00,26.09,29.31,31.98,13.91,43.48,1023.47,2019.99,3350.52,2979.13,3405.03,600.50,594.37,25.50,0000 0000 0000 0000 000000
2018-08-08 02:09:27,0.00,0.33,0.00,26.12,29.33,31.98,13.83,43.50,1023.49,2019.97,3350.01,2978.99,3404.82,599.83,593.75,25.56,0000 0000 0000 0000 000000
2018-08-08 02:14:28,0.02,0.33,0.00,26.16,29.36,32.00,13.74,43.30,1023.51,2019.86,3349.61,2978.63,3404.08,600.09,593.67,25.61,0000 0000 0000 0000 000000
2018-08-08 02:19:29,-0.03,0.33,0.00,26.19,29.39,32.06,13.79,43.34,1023.50,2019.42,3349.02,2978.04,3403.98,600.12,593.85,25.66,0000 0000 0000 0000 000000
2018-08-08 02:24:31,-0.01,0.33,0.00,26.22,29.41,32.10,13.78,43.27,1023.47,2019.13,3348.89,2977.98,3403.28,599.82,593.44,25.71,0000 0000 0000 0000 000000
2018-08-08 02:29:32,0.02,0.33,0.00,26.26,29.45,32.13,13.90,43.32,1023.48,2019.02,3348.16,2977.51,3402.99,600.10,593.65,25.76,0000 0000 0000 0000 000000
2018-08-08 02:34:33,0.02,0.33,0.00,26.28,29.48,32.15,13.72,43.16,1023.47,2019.00,3347.98,2977.03,3402.33,599.98,593.41,25.81,0000 0000 0000 0000 000000
2018-08-08 02:39:35,0.04,0.33,0.00,26.33,29.51,32.20,13.68,43.23,1023.46,2019.00,3347.36,2976.64,3401.75,599.65,593.03,25.86,0000 0000 0000 0000 000000
2018-08-08 02:44:35,0.02,0.33,0.00,26.36,29.54,32.22,13.85,43.53,1023.45,2018.99,3346.67,2976.00,3400.98,600.40,593.68,25.91,0000 0000 0000 0000 000000
2018-08-08 02:49:37,0.04,0.33,0.00,26.40,29.57,32.27,13.70,43.64,1023.45,2018.95,3345.88,2975.29,3400.08,599.54,592.61,25.96,0000 0000 0000 0000 000000
2018-08-08 02:54:38,0.04,0.34,0.00,26.45,29.61,32.28,13.70,43.61,1023.45,2018.84,3345.04,2974.26,3399.09,600.07,593.27,26.01,0000 0000 0000 0000 000000
2018-08-08 02:59:39,-0.02,0.34,0.00,26.48,29.64,32.32,13.78,43.63,1023.45,2018.39,3344.43,2973.97,3398.49,599.97,593.04,26.06,0000 0000 0000 0000 000000
2018-08-08 03:04:41,0.00,0.34,0.00,26.51,29.67,32.33,13.78,43.43,1023.45,2018.06,3344.01,2973.28,3398.01,599.98,592.96,26.11,0000 0000 0000 0000 000000
2018-08-08 03:09:42,0.02,0.34,0.00,26.56,29.70,32.33,13.80,43.46,1023.45,2018.00,3343.48,2973.00,3397.52,600.07,593.07,26.16,0000 0000 0000 0000 000000
2018-08-08 03:14:43,0.01,0.34,0.00,26.59,29.73,32.42,13.80,43.27,1023.47,2018.00,3343.01,2972.83,3397.02,599.65,592.53,26.21,0000 0000 0000 0000 000000
2018-08-08 03:19:45,0.03,0.34,0.00,26.63,29.76,32.43,13.65,43.10,1023.49,2018.00,3342.79,2972.14,3396.80,599.51,592.34,26.26,0000 0000 0000 0000 000000
2018-08-08 03:24:46,0.02,0.34,0.00,26.65,29.78,32.46,13.72,43.00,1023.51,2017.98,3342.06,2972.00,3396.06,599.84,592.75,26.31,0000 0000 0000 0000 000000
2018-08-08 03:29:47,0.01,0.34,0.00,26.68,29.81,32.49,13.74,43.00,1023.51,2017.88,3341.78,2971.68,3395.77,600.13,592.94,26.36,0000 0000 0000 0000 000000
2018-08-08 03:34:48,-0.01,0.34,0.00,26.71,29.85,32.54,13.74,42.88,1023.53,2017.57,3341.07,2971.05,3395.07,600.25,592.90,26.41,0000 0000 0000 0000 000000
2018-08-08 03:39:49,-0.02,0.34,0.00,26.75,29.88,32.56,13.68,42.98,1023.54,2017.21,3340.95,2970.97,3394.94,599.94,592.58,26.46,0000 0000 0000 0000 000000
2018-08-08 03:44:50,0.03,0.34,0.00,26.79,29.91,32.59,13.72,43.04,1023.49,2017.04,3340.28,2970.51,3394.27,599.84,592.36,26.51,0000 0000 0000 0000 000000
2018-08-08 03:49:52,0.01,0.34,0.00,26.83,29.94,32.59,13.74,43.10,1023.47,2017.01,3339.90,2970.01,3393.89,600.12,592.44,26.56,0000 0000 0000 0000 000000
2018-08-08 03:54:53,0.03,0.34,0.00,26.86,29.98,32.68,13.70,42.99,1023.46,2017.00,3339.24,2969.86,3393.22,599.68,592.08,26.61,0000 0000 0000 0000 000000
2018-08-08 03:59:55,0.02,0.35,0.00,26.89,30.01,32.70,13.76,43.05,1023.46,2016.99,3338.97,2969.10,3392.99,599.98,592.26,26.66,0000 0000 0000 0000 000000
2018-08-08 04:04:56,0.05,0.35,0.00,26.92,30.05,32.72,13.70,43.09,1023.46,2016.95,3338.04,2968.74,3392.01,599.60,591.94,26.71,0000 0000 0000 0000 000000
2018-08-08 04:09:57,0.03,0.35,0.00,26.97,30.08,32.76,13.72,43.05,1023.45,2016.81,3337.03,2967.70,3391.02,599.88,592.12,26.76,0000 0000 0000 0000 000000
2018-08-08 04:14:58,-0.03,0.35,0.00,26.98,30.11,32.78,13.75,43.10,1023.45,2016.21,3336.51,2967.03,3390.40,600.34,592.52,26.81,0000 0000 0000 0000 000000
2018-08-08 04:19:59,0.01,0.35,0.00,27.01,30.15,32.84,13.74,43.04,1023.45,2016.02,3336.01,2966.85,3389.98,599.69,591.66,26.86,0000 0000 0000 0000 000000
2018-08-08 04:25:01,0.04,0.35,0.00,27.07,30.18,32.88,13.79,43.29,1023.45,2016.00,3335.66,2966.11,3389.35,600.13,591.94,26.91,0000 0000 0000 0000 000000
2018-08-08 04:30:02,0.01,0.35,0.00,27.11,30.22,32.91,13.67,43.05,1023.46,2016.00,3334.98,2965.90,3388.89,599.92,591.71,26.96,0000 0000 0000 0000 000000
2018-08-08 04:35:04,0.04,0.35,0.00,27.16,30.26,32.94,13.71,42.96,1023.46,2015.97,3334.27,2965.14,3388.10,599.96,591.70,27.01,0000 0000 0000 0000 000000
2018-08-08 04:40:05,-0.00,0.35,0.00,27.19,30.29,32.98,13.78,43.05,1023.46,2015.91,3333.99,2965.00,3387.90,600.11,591.80,27.06,0000 0000 0000 0000 000000
2018-08-08 04:45:06,0.01,0.35,0.00,27.22,30.33,33.02,13.74,43.03,1023.46,2015.74,3333.47,2964.80,3387.18,599.92,591.54,27.11,0000 0000 0000 0000 000000
2018-08-08 04:50:07,-0.03,0.35,0.00,27.25,30.36,33.08,13.74,42.90,1023.46,2015.18,3332.97,2964.07,3386.83,599.76,591.36,27.16,0000 0000 0000 0000 000000
2018-08-08 04:55:08,0.03,0.35,0.00,27.28,30.40,33.08,13.70,43.03,1023.46,2015.01,3332.16,2963.76,3386.07,599.99,591.48,27.21,0000 0000 0000 0000 000000
2018-08-08 05:00:10,0.03,0.36,0.00,27.32,30.43,33.14,13.65,43.02,1023.46,2014.99,3331.79,2963.05,3385.49,599.84,591.28,27.26,0000 0000 0000 0000 000000
2018-08-08 05:05:11,0.02,0.36,0.00,27.34,30.47,33.14,13.74,42.94,1023.46,2014.97,3331.04,2962.74,3384.94,600.11,591.42,27.31,0000 0000 0000 0000 000000
2018-08-08 05:10:13,0.01,0.36,0.00,27.36,30.50,33.19,13.78,43.02,1023.47,2014.78,3330.64,2962.04,3384.21,599.85,591.28,27.36,0000 0000 0000 0000 000000
2018-08-08 05:15:14,-0.01,0.36,0.00,27.39,30.53,33.20,13.72,42.94,1023.46,2014.32,3329.98,2961.76,3383.72,599.91,591.32,27.41,0000 0000 0000 0000 000000
2018-08-08 05:20:16,0.02,0.36,0.00,27.42,30.57,33.23,13.74,43.01,1023.46,2014.10,3329.18,2961.04,3382.95,600.03,591.23,27.46,0000 0000 0000 0000 000000
2018-08-08 05:25:17,0.03,0.36,0.00,27.46,30.60,33.27,13.77,43.00,1023.45,2014.01,3328.58,2960.55,3382.11,600.05,591.07,27.51,0000 0000 0000 0000 000000
2018-08-08 05:30:18,0.01,0.36,0.00,27.49,30.64,33.33,13.69,42.83,1023.46,2014.00,3328.01,2960.01,3381.72,600.05,591.15,27.56,0000 0000 0000 0000 000000
2018-08-08 05:35:19,0.04,0.36,0.00,27.53,30.67,33.35,13.69,42.90,1023.45,2014.00,3327.30,2959.61,3381.02,600.08,591.07,27.61,0000 0000 0000 0000 000000
2018-08-08 05:40:20,0.02,0.36,0.00,27.57,30.71,33.39,13.82,42.98,1023.46,2013.98,3326.96,2959.02,3380.26,600.16,591.12,27.66,0000 0000 0000 0000 000000
2018-08-08 05:45:22,0.03,0.37,0.00,27.59,30.74,33.41,13.76,42.92,1023.46,2013.93,3326.22,2958.58,3379.80,599.93,590.84,27.71,0000 0000 0000 0000 000000
2018-08-08 05:50:23,0.00,0.37,0.00,27.62,30.77,33.46,13.72,42.97,1023.48,2013.70,3325.74,2958.02,3379.04,599.91,590.69,27.76,0000 0000 0000 0000 000000
2018-08-08 05:55:24,0.00,0.37,0.00,27.65,30.81,33.49,13.68,43.02,1023.48,2013.28,3325.02,2957.59,3378.42,599.85,590.70,27.81,0000 0000 0000 0000 000000
2018-08-08 06:00:26,0.01,0.37,0.00,27.69,30.84,33.51,13.72,42.85,1023.49,2013.04,3324.38,2957.02,3377.90,599.87,590.59,27.86,0000 0000 0000 0000 000000
2018-08-08 06:05:27,0.03,0.37,0.00,27.72,30.88,33.54,13.73,42.92,1023.48,2013.01,3323.94,2956.54,3377.11,599.93,590.59,27.91,0000 0000 0000 0000 000000
2018-08-08 06:10:28,0.03,0.37,0.00,27.76,30.91,33.56,13.71,42.83,1023.46,2013.00,3323.17,2956.00,3376.52,600.14,590.66,27.96,0000 0000 0000 0000 000000
2018-08-08 06:15:29,0.11,0.37,0.00,27.79,30.94,33.61,13.77,43.01,1023.47,2012.98,3321.94,2954.77,3374.93,600.21,590.70,28.01,0000 0000 0000 0000 000000
2018-08-08 06:20:31,0.05,0.38,0.00,27.83,30.98,33.63,13.74,43.02,1023.47,2012.84,3320.27,2953.08,3373.08,600.17,590.64,28.06,0000 0000 0000 0000 000000
2018-08-08 06:25:32,-0.02,0.38,0.00,27.86,31.01,33.64,13.74,42.93,1023.46,2012.28,3319.74,2952.61,3372.37,599.81,590.18,28.11,0000 0000 0000 0000 000000
2018-08-08 06:30:33,0.01,0.38,0.00,27.89,31.05,33.69,13.69,42.83,1023.46,2012.06,3318.97,2952.01,3371.74,599.81,590.12,28.16,0000 0000 0000 0000 000000
2018-08-08 06:35:34,0.04,0.38,0.00,27.91,31.08,33.74,13.68,42.85,1023.47,2012.00,3318.14,2951.31,3370.96,600.03,590.25,28.21,0000 0000 0000 0000 000000
2018-08-08 06:40:35,0.03,0.38,0.00,27.96,31.11,33.75,13.72,42.85,1023.48,2012.00,3317.57,2950.93,3370.12,600.27,590.40,28.26,0000 0000 0000 0000 000000
2018-08-08 06:45:36,0.05,0.38,0.00,27.99,31.15,33.78,13.72,42.89,1023.46,2011.97,3316.67,2950.09,3369.30,600.05,590.25,28.31,0000 0000 0000 0000 000000
2018-08-08 06:50:38,0.03,0.39,0.00,28.02,31.18,33.82,13.66,42.89,1023.45,2011.84,3315.98,2949.40,3368.44,600.05,590.12,28.36,0000 0000 0000 0000 000000
2018-08-08 06:55:39,0.01,0.39,0.00,28.07,31.21,33.84,13.68,42.86,1023.45,2011.52,3315.16,2948.98,3367.80,599.92,589.87,28.41,0000 0000 0000 0000 000000
2018-08-08 07:00:40,0.00,0.39,0.00,28.10,31.25,33.90,13.71,42.98,1023.45,2011.15,3314.52,2948.19,3367.00,600.08,589.94,28.46,0000 0000 0000 0000 000000
2018-08-08 07:05:42,0.02,0.39,0.00,28.14,31.28,33.93,13.62,42.87,1023.45,2011.02,3313.88,2947.73,3366.15,600.05,589.98,28.51,0000 0000 0000 0000 000000
2018-08-08 07:10:43,0.04,0.39,0.00,28.17,31.31,33.96,13.71,42.80,1023.46,2011.00,3313.09,2947.04,3365.56,600.15,589.90,28.56,0000 0000 0000 0000 000000
2018-08-08 07:15:45,0.04,0.39,0.00,28.20,31.35,33.99,13.78,42.78,1023.47,2011.00,3312.47,2946.55,3364.81,600.29,589.94,28.61,0000 0000 0000 0000 000000
2018-08-08 07:20:46,0.07,0.40,0.00,28.24,31.37,34.02,13.71,42.77,1023.46,2010.98,3311.17,2945.24,3363.22,600.14,589.74,28.66,0000 0000 0000 0000 000000
2018-08-08 07:25:47,0.07,0.40,0.00,28.28,31.41,34.04,13.68,42.95,1023.46,2010.82,3309.77,2944.00,3361.64,600.16,589.50,28.71,0000 0000 0000 0000 000000
2018-08-08 07:30:48,0.01,0.40,0.00,28.33,31.44,34.10,13.75,42.92,1023.46,2010.26,3308.49,2942.88,3360.07,600.49,589.86,28.76,0000 0000 0000 0000 000000
2018-08-08 07:35:50,0.02,0.40,0.00,28.37,31.48,34.10,13.64,42.68,1023.47,2010.06,3307.85,2942.08,3359.35,599.82,589.13,28.81,0000 0000 0000 0000 000000
2018-08-08 07:40:51,0.04,0.40,0.00,28.43,31.51,34.16,13.63,42.73,1023.46,2010.00,3307.01,2941.55,3358.40,600.00,589.31,28.86,0000 0000 0000 0000 000000
2018-08-08 07:45:52,0.03,0.41,0.00,28.47,31.54,34.20,13.63,42.93,1023.46,2009.99,3306.14,2940.97,3357.62,599.99,589.10,28.91,0000 0000 0000 0000 000000
2018-08-08 07:50:53,0.04,0.41,0.00,28.51,31.58,34.21,13.66,42.98,1023.45,2009.98,3305.54,2940.22,3356.87,600.32,589.39,28.96,0000 0000 0000 0000 000000
2018-08-08 07:55:55,0.02,0.41,0.00,28.57,31.61,34.26,13.58,42.83,1023.47,2009.85,3304.73,2939.62,3355.99,599.84,588.84,29.01,0000 0000 0000 0000 000000
2018-08-08 08:00:56,-0.02,0.41,0.00,28.53,31.65,34.32,13.64,42.81,1023.45,2009.27,3303.90,2938.97,3355.09,600.01,589.13,29.06,0000 0000 0000 0000 000000
2018-08-08 08:05:57,0.04,0.41,0.00,28.40,31.67,34.39,13.70,42.77,1023.46,2009.04,3303.04,2938.14,3354.19,600.19,589.54,29.11,0000 0000 0000 0000 000000
2018-08-08 08:10:58,0.06,0.41,0.00,28.26,31.70,34.43,13.69,42.73,1023.46,2009.01,3301.96,2937.62,3353.31,600.14,589.67,29.16,0000 0000 0000 0000 000000
2018-08-08 08:16:00,0.07,0.42,0.00,28.10,31.70,34.57,13.74,43.04,1023.45,2009.00,3300.54,2936.09,3351.83,600.02,589.91,29.21,0000 0000 0000 0000 000000
2018-08-08 08:21:01,0.08,0.42,0.00,27.97,31.70,34.55,13.67,43.03,1023.45,2009.00,3299.40,2935.35,3350.45,600.07,590.21,29.26,0000 0000 0000 0000 000000
2018-08-08 08:26:03,0.05,0.42,0.00,27.84,31.67,34.50,13.71,42.95,1023.45,2009.00,3297.98,2934.01,3349.01,600.04,590.37,29.32,0000 0000 0000 0000 000000
2018-08-08 08:31:04,0.04,0.43,0.00,27.73,31.65,34.45,13.72,42.94,1023.45,2009.01,3297.15,2933.54,3348.26,599.74,590.38,29.37,0000 0000 0000 0000 000000
2018-08-08 08:36:05,0.01,0.43,0.00,27.65,31.61,34.34,13.73,43.00,1023.45,2009.06,3296.98,2933.05,3348.00,599.95,590.68,29.42,0000 0000 0000 0000 000000
2018-08-08 08:41:06,0.05,0.43,0.00,27.57,31.57,34.22,13.71,43.03,1023.45,2009.24,3296.32,2932.99,3347.53,599.97,590.94,29.47,0000 0000 0000 0000 000000
2018-08-08 08:46:07,0.05,0.43,0.00,27.51,31.53,34.13,13.70,42.92,1023.45,2009.64,3296.00,2932.89,3347.02,600.00,591.00,29.52,0000 0000 0000 0000 000000
2018-08-08 08:51:09,0.04,0.43,0.00,27.47,31.48,33.99,13.73,43.02,1023.41,2009.96,3295.76,2932.32,3346.92,599.93,590.98,29.57,0000 0000 0000 0000 000000
2018-08-08 08:56:10,0.02,0.44,0.00,27.45,31.43,33.88,13.73,42.92,1023.41,2009.99,3295.09,2932.02,3346.27,599.91,591.11,29.62,0000 0000 0000 0000 000000
2018-08-08 09:01:11,0.00,0.44,0.00,27.42,31.38,33.81,13.72,43.02,1023.29,2009.99,3294.95,2932.00,3346.01,600.11,591.21,29.67,0000 0000 0000 0000 000000
2018-08-08 09:06:12,0.03,0.44,0.00,27.41,31.34,33.79,13.79,42.93,1023.26,2010.04,3294.20,2931.90,3345.67,600.36,591.42,29.72,0000 0000 0000 0000 000000
2018-08-08 09:11:14,0.07,0.44,0.00,27.41,31.29,33.74,13.76,43.03,1023.10,2010.35,3294.00,2931.27,3345.06,599.96,591.00,29.77,0000 0000 0000 0000 000000
2018-08-08 09:16:15,0.05,0.44,0.00,27.42,31.24,33.69,13.71,43.09,1023.02,2010.88,3293.64,2931.01,3344.95,600.06,591.03,29.82,0000 0000 0000 0000 000000
2018-08-08 09:21:17,0.02,0.45,0.00,27.43,31.19,33.64,13.77,43.13,1023.00,2010.98,3293.03,2930.99,3344.29,600.49,591.32,29.87,0000 0000 0000 0000 000000
2018-08-08 09:26:18,0.00,0.45,0.00,27.45,31.15,33.60,13.67,42.94,1023.00,2010.99,3292.95,2930.85,3344.01,600.13,591.00,29.92,0000 0000 0000 0000 000000
2018-08-08 09:31:19,0.04,0.45,0.00,27.47,31.11,33.58,13.72,43.06,1023.02,2011.00,3292.39,2930.30,3343.79,599.94,590.76,29.97,0000 0000 0000 0000 000000
2018-08-08 09:36:21,0.02,0.45,0.00,27.49,31.07,33.54,13.79,43.09,1022.99,2011.03,3292.00,2930.00,3343.05,600.36,591.13,30.02,0000 0000 0000 0000 000000
2018-08-08 09:41:22,0.05,0.45,0.00,27.51,31.04,33.50,13.72,43.11,1022.97,2011.41,3291.62,2929.98,3342.95,599.83,590.75,30.07,0000 0000 0000 0000 000000
2018-08-08 09:46:24,0.07,0.46,0.00,27.54,31.01,33.48,13.71,43.04,1022.97,2011.89,3291.03,2929.38,3342.19,599.86,590.55,30.12,0000 0000 0000 0000 000000
2018-08-08 09:51:25,0.00,0.46,0.00,27.57,30.98,33.45,13.68,43.12,1022.96,2011.96,3290.94,2929.02,3342.00,600.03,590.57,30.17,0000 0000 0000 0000 000000
2018-08-08 09:56:26,0.02,0.46,0.00,27.60,30.96,33.41,13.65,43.17,1022.97,2011.99,3290.16,2928.99,3341.47,599.52,590.19,30.22,0000 0000 0000 0000 000000
2018-08-08 10:01:28,0.01,0.46,0.00,27.62,30.95,33.29,13.68,43.19,1022.98,2011.99,3289.95,2928.69,3341.01,599.53,590.11,30.27,0000 0000 0000 0000 000000
2018-08-08 10:06:30,0.04,0.46,0.00,27.65,30.93,33.21,13.61,43.05,1022.97,2011.99,3289.15,2928.04,3340.49,599.71,590.20,30.32,0000 0000 0000 0000 000000
2018-08-08 10:11:31,0.01,0.46,0.00,27.68,30.92,33.17,13.63,43.05,1022.97,2012.00,3288.79,2927.97,3339.99,599.82,590.28,30.37,0000 0000 0000 0000 000000
2018-08-08 10:16:32,0.04,0.46,0.00,27.72,30.92,33.13,13.73,43.04,1022.97,2012.00,3288.05,2927.23,3339.27,599.98,590.44,30.42,0000 0000 0000 0000 000000
2018-08-08 10:21:34,0.02,0.46,0.00,27.76,30.91,33.14,13.67,43.02,1023.00,2012.02,3287.60,2926.95,3338.82,599.86,590.12,30.47,0000 0000 0000 0000 000000
2018-08-08 10:26:35,0.04,0.47,0.00,27.79,30.92,33.13,13.65,42.88,1023.08,2012.02,3286.82,2926.14,3338.01,599.96,590.30,30.52,0000 0000 0000 0000 000000
2018-08-08 10:31:36,0.04,0.47,0.00,27.83,30.92,33.17,13.73,42.99,1023.17,2012.06,3286.05,2925.82,3337.16,600.06,590.30,30.57,0000 0000 0000 0000 000000
2018-08-08 10:36:37,0.04,0.47,0.00,27.88,30.92,33.22,13.72,43.03,1023.36,2012.07,3285.25,2924.98,3336.36,600.20,590.65,30.62,0000 0000 0000 0000 000000
2018-08-08 10:41:39,0.17,0.48,0.00,27.92,30.94,33.28,13.65,42.98,1023.42,2012.04,3282.91,2922.39,3333.33,600.14,590.35,30.67,0000 0000 0000 0000 000000
2018-08-08 10:46:40,0.11,0.48,0.00,27.98,30.95,33.36,13.66,42.87,1023.45,2012.02,3281.27,2920.94,3331.41,600.04,590.17,30.72,0000 0000 0000 0000 000000
2018-08-08 10:51:41,0.05,0.49,0.00,28.03,30.97,33.42,13.74,42.88,1023.45,2012.00,3279.89,2919.62,3329.83,600.20,590.22,30.77,0000 0000 0000 0000 000000
2018-08-08 10:56:42,0.07,0.49,0.00,28.10,31.00,33.45,13.73,42.71,1023.45,2012.00,3278.72,2918.65,3328.68,599.85,589.66,30.82,0000 0000 0000 0000 000000
2018-08-08 11:01:44,0.06,0.50,0.00,28.19,31.01,33.49,13.69,42.92,1023.43,2012.00,3277.43,2917.66,3327.45,600.10,589.81,30.87,0000 0000 0000 0000 000000
2018-08-08 11:06:45,0.06,0.50,0.00,28.29,31.04,33.52,13.63,42.81,1023.44,2011.99,3276.24,2916.64,3326.36,599.88,589.39,30.92,0000 0000 0000 0000 000000
2018-08-08 11:11:47,0.04,0.50,0.00,28.40,31.06,33.54,13.65,42.78,1023.40,2011.98,3275.30,2915.95,3325.39,599.81,589.24,30.97,0000 0000 0000 0000 000000
2018-08-08 11:16:48,0.05,0.50,0.00,28.49,31.09,33.58,13.69,42.81,1023.38,2011.96,3274.26,2915.11,3324.41,600.15,589.22,31.02,0000 0000 0000 0000 000000
2018-08-08 11:21:49,0.05,0.51,0.00,28.58,31.12,33.59,13.54,42.83,1023.39,2011.91,3273.24,2914.25,3323.44,599.64,588.56,31.07,0000 0000 0000 0000 000000
2018-08-08 11:26:51,0.03,0.51,0.00,28.64,31.15,33.63,13.63,42.65,1023.40,2011.58,3272.28,2913.50,3322.43,599.95,588.72,31.12,0000 0000 0000 0000 000000
2018-08-08 11:31:52,0.01,0.51,0.00,28.69,31.17,33.65,13.63,42.59,1023.41,2011.33,3271.19,2912.64,3321.36,599.94,588.76,31.17,0000 0000 0000 0000 000000
2018-08-08 11:36:53,0.04,0.51,0.00,28.74,31.20,33.68,13.69,42.50,1023.45,2011.03,3269.93,2911.68,3320.12,599.86,588.55,31.22,0000 0000 0000 0000 000000
2018-08-08 11:41:54,0.07,0.51,0.00,28.76,31.22,33.72,13.60,42.54,1023.45,2011.00,3268.70,2910.62,3318.89,599.93,588.48,31.27,0000 0000 0000 0000 000000
2018-08-08 11:46:56,0.07,0.52,0.00,28.77,31.24,33.79,13.52,42.60,1023.45,2011.00,3267.47,2909.61,3317.66,599.67,588.37,31.32,0000 0000 0000 0000 000000
2018-08-08 11:51:57,0.05,0.52,0.00,28.77,31.25,33.83,13.71,42.50,1023.45,2011.00,3266.28,2908.71,3316.62,600.11,588.63,31.37,0000 0000 0000 0000 000000
2018-08-08 11:56:58,0.04,0.52,0.00,28.76,31.27,33.83,13.61,42.64,1023.45,2010.99,3265.27,2907.93,3315.62,599.89,588.43,31.42,0000 0000 0000 0000 000000
2018-08-08 12:01:59,0.05,0.53,0.00,28.71,31.28,33.81,13.62,42.63,1023.45,2010.95,3264.40,2907.12,3314.68,599.98,588.70,31.47,0000 0000 0000 0000 000000
2018-08-08 12:07:01,0.05,0.53,0.00,28.66,31.30,33.80,13.59,42.66,1023.45,2010.87,3263.36,2906.30,3313.78,599.91,588.70,31.52,0000 0000 0000 0000 000000
2018-08-08 12:12:02,0.02,0.53,0.00,28.58,31.30,33.77,13.66,42.66,1023.45,2010.89,3262.71,2905.83,3312.91,600.05,588.92,31.57,0000 0000 0000 0000 000000
2018-08-08 12:17:03,0.01,0.53,0.00,28.48,31.30,33.76,13.71,42.77,1023.45,2010.59,3261.81,2905.03,3312.03,600.20,589.34,31.62,0000 0000 0000 0000 000000
2018-08-08 12:22:05,0.03,0.53,0.00,28.39,31.31,33.76,13.59,42.70,1023.45,2010.36,3261.00,2904.33,3311.16,599.76,588.95,31.67,0000 0000 0000 0000 000000
2018-08-08 12:27:06,0.01,0.53,0.00,28.32,31.31,33.76,13.75,42.73,1023.44,2010.16,3260.17,2903.95,3310.43,599.97,589.57,31.72,0000 0000 0000 0000 000000
2018-08-08 12:32:07,0.04,0.54,0.00,28.26,31.31,33.75,13.71,42.70,1023.44,2010.12,3259.52,2903.26,3309.89,599.78,589.33,31.77,0000 0000 0000 0000 000000
2018-08-08 12:37:09,0.04,0.54,0.00,28.21,31.30,33.74,13.69,42.73,1023.44,2010.11,3258.59,2902.68,3309.06,599.98,589.64,31.82,0000 0000 0000 0000 000000
2018-08-08 12:42:10,0.03,0.54,0.00,28.17,31.30,33.75,13.62,42.86,1023.39,2010.09,3257.85,2902.02,3308.21,599.96,589.69,31.87,0000 0000 0000 0000 000000
2018-08-08 12:47:11,0.04,0.54,0.00,28.15,31.30,33.75,13.75,42.81,1023.39,2010.06,3257.01,2901.42,3307.56,599.87,589.61,31.92,0000 0000 0000 0000 000000
2018-08-08 12:52:13,0.02,0.54,0.00,28.12,31.30,33.75,13.67,42.89,1023.38,2010.07,3256.24,2900.98,3306.88,599.97,589.74,31.97,0000 0000 0000 0000 000000
2018-08-08 12:57:14,0.05,0.55,0.00,28.09,31.28,33.78,13.67,42.84,1023.28,2010.09,3255.46,2900.22,3306.07,600.13,589.97,32.02,0000 0000 0000 0000 000000